Time,TemperatureF,DewpointF,PressureIn,WindDirection,WindDirectionDegrees,WindSpeedMPH,WindSpeedGustMPH,Humidity,HourlyPrecipIn,Conditions,Clouds,dailyrainin,SolarRadiationWatts/m^2,SoftwareType,DateUTC
2013-06-23 00:02:00,59.0,59.0,-100.00,South,169,0.0,5.0,100,0.01,,,0.03,2.000000,,2013-06-23 07:02:00,
2013-06-23 00:34:00,59.0,59.0,-100.00,SSE,164,1.0,4.0,100,0.03,,,0.06,2.000000,,2013-06-23 07:34:00,
2013-06-23 00:43:00,59.0,59.0,-100.00,SSE,164,1.0,4.0,100,0.03,,,0.06,2.000000,,2013-06-23 07:43:00,
2013-06-23 00:53:00,59.0,59.0,-100.00,SSE,164,1.0,4.0,100,0.03,,,0.06,2.000000,,2013-06-23 07:53:00,
2013-06-23 01:02:00,59.0,59.0,-100.00,SSE,164,1.0,4.0,100,0.03,,,0.06,2.000000,,2013-06-23 08:02:00,
2013-06-23 01:34:00,59.0,59.0,-100.00,South,178,4.0,6.0,100,0.02,,,0.08,2.000000,,2013-06-23 08:34:00,
2013-06-23 01:43:00,59.0,59.0,-100.00,South,178,4.0,6.0,100,0.02,,,0.08,2.000000,,2013-06-23 08:43:00,
2013-06-23 01:53:00,59.0,59.0,-100.00,South,178,4.0,6.0,100,0.02,,,0.08,2.000000,,2013-06-23 08:53:00,
2013-06-23 02:02:00,59.0,59.0,-100.00,South,178,4.0,6.0,100,0.02,,,0.08,2.000000,,2013-06-23 09:02:00,
2013-06-23 02:34:00,58.0,58.0,-100.00,SSW,195,7.0,10.0,100,0.01,,,0.09,2.000000,,2013-06-23 09:34:00,
2013-06-23 02:43:00,58.0,58.0,-100.00,SSW,195,7.0,10.0,100,0.01,,,0.09,2.000000,,2013-06-23 09:43:00,
2013-06-23 02:53:00,58.0,58.0,-100.00,SSW,195,7.0,10.0,100,0.01,,,0.09,2.000000,,2013-06-23 09:53:00,
2013-06-23 03:02:00,58.0,58.0,-100.00,SSW,195,7.0,10.0,100,0.01,,,0.09,2.000000,,2013-06-23 10:02:00,
2013-06-23 03:34:00,59.0,59.0,-100.00,South,183,9.0,16.0,100,0.00,,,0.09,2.000000,,2013-06-23 10:34:00,
2013-06-23 03:43:00,59.0,59.0,-100.00,South,183,9.0,16.0,100,0.00,,,0.09,2.000000,,2013-06-23 10:43:00,
2013-06-23 03:53:00,59.0,59.0,-100.00,South,183,9.0,16.0,100,0.00,,,0.09,2.000000,,2013-06-23 10:53:00,
2013-06-23 04:01:00,59.0,59.0,-100.00,South,183,9.0,16.0,100,0.00,,,0.09,2.000000,,2013-06-23 11:01:00,
2013-06-23 04:33:00,58.0,58.0,-100.00,SSW,210,1.0,13.0,100,0.01,,,0.10,2.000000,,2013-06-23 11:33:00,
2013-06-23 04:43:00,58.0,58.0,-100.00,SSW,210,1.0,13.0,100,0.01,,,0.10,2.000000,,2013-06-23 11:43:00,
2013-06-23 04:53:00,58.0,58.0,-100.00,SSW,210,1.0,13.0,100,0.01,,,0.10,2.000000,,2013-06-23 11:53:00,
2013-06-23 05:01:00,58.0,58.0,-100.00,SSW,210,1.0,13.0,100,0.01,,,0.10,2.000000,,2013-06-23 12:01:00,
2013-06-23 05:33:00,58.0,58.0,-100.00,SSW,206,0.0,4.0,100,0.00,,,0.10,5.000000,,2013-06-23 12:33:00,
2013-06-23 05:43:00,58.0,58.0,-100.00,SSW,206,0.0,4.0,100,0.00,,,0.10,5.000000,,2013-06-23 12:43:00,
2013-06-23 05:53:00,58.0,58.0,-100.00,SSW,206,0.0,4.0,100,0.00,,,0.10,5.000000,,2013-06-23 12:53:00,
2013-06-23 06:01:00,58.0,58.0,-100.00,SSW,206,0.0,4.0,100,0.00,,,0.10,5.000000,,2013-06-23 13:01:00,
2013-06-23 06:04:00,59.0,59.0,-100.00,WSW,254,0.0,0.0,100,0.00,,,-99.99,5.000000,,2013-06-23 13:04:00,
2013-06-23 06:34:00,59.0,59.0,-100.00,WSW,254,0.0,0.0,100,0.00,,,-99.99,5.000000,,2013-06-23 13:34:00,
2013-06-23 06:43:00,59.0,59.0,-100.00,WSW,254,0.0,0.0,100,0.00,,,-99.99,5.000000,,2013-06-23 13:43:00,
2013-06-23 06:54:00,59.0,59.0,-100.00,WSW,254,0.0,0.0,100,0.00,,,-99.99,5.000000,,2013-06-23 13:54:00,
2013-06-23 07:04:00,60.0,60.0,-100.00,NNE,25,0.0,0.0,100,0.00,,,0.10,22.000000,,2013-06-23 14:04:00,
2013-06-23 07:34:00,60.0,60.0,-100.00,NNE,25,0.0,0.0,100,0.00,,,0.10,22.000000,,2013-06-23 14:34:00,
2013-06-23 07:44:00,60.0,60.0,-100.00,NNE,25,0.0,0.0,100,0.00,,,0.10,22.000000,,2013-06-23 14:44:00,
2013-06-23 07:52:00,60.0,60.0,-100.00,NNE,25,0.0,0.0,100,0.00,,,0.10,22.000000,,2013-06-23 14:52:00,
2013-06-23 08:04:00,60.0,60.0,-100.00,SSW,197,1.0,4.0,100,0.00,,,0.10,51.000000,,2013-06-23 15:04:00,
2013-06-23 08:35:00,60.0,60.0,-100.00,SSW,197,1.0,4.0,100,0.00,,,0.10,51.000000,,2013-06-23 15:35:00,
2013-06-23 08:43:00,60.0,60.0,-100.00,SSW,197,1.0,4.0,100,0.00,,,0.10,51.000000,,2013-06-23 15:43:00,
2013-06-23 08:52:00,60.0,60.0,-100.00,SSW,197,1.0,4.0,100,0.00,,,0.10,51.000000,,2013-06-23 15:52:00,
2013-06-23 09:36:00,60.0,60.0,-100.00,SSW,196,4.0,5.0,100,0.00,,,0.10,70.000000,,2013-06-23 16:36:00,
2013-06-23 09:43:00,60.0,60.0,-100.00,SSW,196,4.0,5.0,100,0.00,,,0.10,70.000000,,2013-06-23 16:43:00,
2013-06-23 09:53:00,60.0,60.0,-100.00,SSW,196,4.0,5.0,100,0.00,,,0.10,70.000000,,2013-06-23 16:53:00,
2013-06-23 10:03:00,60.0,60.0,-100.00,SSW,196,4.0,5.0,100,0.00,,,0.10,70.000000,,2013-06-23 17:03:00,
2013-06-23 10:33:00,61.0,61.0,-100.00,SSW,208,4.0,8.0,100,0.00,,,0.10,155.000000,,2013-06-23 17:33:00,
2013-06-23 10:43:00,61.0,61.0,-100.00,SSW,208,4.0,8.0,100,0.00,,,0.10,155.000000,,2013-06-23 17:43:00,
2013-06-23 10:53:00,61.0,61.0,-100.00,SSW,208,4.0,8.0,100,0.00,,,0.10,155.000000,,2013-06-23 17:53:00,
2013-06-23 11:01:00,61.0,61.0,-100.00,SSW,208,4.0,8.0,100,0.00,,,0.10,155.000000,,2013-06-23 18:01:00,
2013-06-23 11:34:00,65.0,65.0,-100.00,South,172,4.0,8.0,100,0.00,,,0.10,414.000000,,2013-06-23 18:34:00,
2013-06-23 11:43:00,65.0,65.0,-100.00,South,172,4.0,8.0,100,0.00,,,0.10,414.000000,,2013-06-23 18:43:00,
2013-06-23 11:53:00,65.0,65.0,-100.00,South,172,4.0,8.0,100,0.00,,,0.10,414.000000,,2013-06-23 18:53:00,
2013-06-23 12:01:00,65.0,65.0,-100.00,South,172,4.0,8.0,100,0.00,,,0.10,414.000000,,2013-06-23 19:01:00,
2013-06-23 12:43:00,66.0,66.0,-100.00,WNW,296,0.0,7.0,99,0.00,,,0.10,377.000000,,2013-06-23 19:43:00,
2013-06-23 12:53:00,66.0,66.0,-100.00,WNW,296,0.0,7.0,99,0.00,,,0.10,377.000000,,2013-06-23 19:53:00,
2013-06-23 13:01:00,66.0,66.0,-100.00,WNW,296,0.0,7.0,99,0.00,,,0.10,377.000000,,2013-06-23 20:01:00,
2013-06-23 13:34:00,64.0,61.0,-100.00,South,179,3.0,7.0,91,0.00,,,0.10,375.000000,,2013-06-23 20:34:00,
2013-06-23 13:42:00,64.0,61.0,-100.00,South,179,3.0,7.0,91,0.00,,,0.10,375.000000,,2013-06-23 20:42:00,
2013-06-23 13:53:00,64.0,61.0,-100.00,South,179,3.0,7.0,91,0.00,,,0.10,375.000000,,2013-06-23 20:53:00,
2013-06-23 14:01:00,64.0,61.0,-100.00,South,179,3.0,7.0,91,0.00,,,0.10,375.000000,,2013-06-23 21:01:00,
2013-06-23 14:34:00,61.0,61.0,-100.00,SSW,212,4.0,11.0,100,0.00,,,0.10,301.000000,,2013-06-23 21:34:00,
2013-06-23 14:44:00,61.0,61.0,-100.00,SSW,212,4.0,11.0,100,0.00,,,0.10,301.000000,,2013-06-23 21:44:00,
2013-06-23 14:52:00,61.0,61.0,-100.00,SSW,212,4.0,11.0,100,0.00,,,0.10,301.000000,,2013-06-23 21:52:00,
2013-06-23 15:01:00,61.0,61.0,-100.00,SSW,212,4.0,11.0,100,0.00,,,0.10,301.000000,,2013-06-23 22:01:00,
2013-06-23 15:32:00,62.0,62.0,-100.00,SSW,205,4.0,11.0,100,0.01,,,0.11,271.000000,,2013-06-23 22:32:00,
2013-06-23 15:43:00,62.0,62.0,-100.00,SSW,205,4.0,11.0,100,0.01,,,0.11,271.000000,,2013-06-23 22:43:00,
2013-06-23 15:53:00,62.0,62.0,-100.00,SSW,205,4.0,11.0,100,0.01,,,0.11,271.000000,,2013-06-23 22:53:00,
2013-06-23 16:01:00,62.0,62.0,-100.00,SSW,205,4.0,11.0,100,0.01,,,0.11,271.000000,,2013-06-23 23:01:00,
2013-06-23 16:33:00,60.0,60.0,-100.00,SW,217,2.0,10.0,100,0.03,,,0.14,247.000000,,2013-06-23 23:33:00,
2013-06-23 16:44:00,60.0,60.0,-100.00,SW,217,2.0,10.0,100,0.03,,,0.14,247.000000,,2013-06-23 23:44:00,
2013-06-23 16:52:00,60.0,60.0,-100.00,SW,217,2.0,10.0,100,0.03,,,0.14,247.000000,,2013-06-23 23:52:00,
2013-06-23 17:01:00,60.0,60.0,-100.00,SW,217,2.0,10.0,100,0.03,,,0.14,247.000000,,2013-06-24 00:01:00,
2013-06-23 17:33:00,60.0,60.0,-100.00,SSW,202,7.0,11.0,100,0.00,,,0.14,126.000000,,2013-06-24 00:33:00,
2013-06-23 17:42:00,60.0,60.0,-100.00,SSW,202,7.0,11.0,100,0.00,,,0.14,126.000000,,2013-06-24 00:42:00,
2013-06-23 17:52:00,60.0,60.0,-100.00,SSW,202,7.0,11.0,100,0.00,,,0.14,126.000000,,2013-06-24 00:52:00,
2013-06-23 18:01:00,60.0,60.0,-100.00,SSW,202,7.0,11.0,100,0.00,,,0.14,126.000000,,2013-06-24 01:01:00,
2013-06-23 18:32:00,62.0,62.0,-100.00,SSW,200,11.0,19.0,100,0.00,,,0.14,207.000000,,2013-06-24 01:32:00,
2013-06-23 18:42:00,62.0,62.0,-100.00,SSW,200,11.0,19.0,100,0.00,,,0.14,207.000000,,2013-06-24 01:42:00,
2013-06-23 18:53:00,62.0,62.0,-100.00,SSW,200,11.0,19.0,100,0.00,,,0.14,207.000000,,2013-06-24 01:53:00,
2013-06-23 19:01:00,62.0,62.0,-100.00,SSW,200,11.0,19.0,100,0.00,,,0.14,207.000000,,2013-06-24 02:01:00,
2013-06-23 19:33:00,60.0,60.0,-100.00,SSW,195,10.0,20.0,100,0.02,,,0.16,75.000000,,2013-06-24 02:33:00,
2013-06-23 19:42:00,60.0,60.0,-100.00,SSW,195,10.0,20.0,100,0.02,,,0.16,75.000000,,2013-06-24 02:42:00,
2013-06-23 19:53:00,60.0,60.0,-100.00,SSW,195,10.0,20.0,100,0.02,,,0.16,75.000000,,2013-06-24 02:53:00,
2013-06-23 20:01:00,60.0,60.0,-100.00,SSW,195,10.0,20.0,100,0.02,,,0.16,75.000000,,2013-06-24 03:01:00,
2013-06-23 20:33:00,59.0,59.0,-100.00,SSW,193,10.0,20.0,100,0.03,,,0.19,46.000000,,2013-06-24 03:33:00,
2013-06-23 20:43:00,59.0,59.0,-100.00,SSW,193,10.0,20.0,100,0.03,,,0.19,46.000000,,2013-06-24 03:43:00,
2013-06-23 20:53:00,59.0,59.0,-100.00,SSW,193,10.0,20.0,100,0.03,,,0.19,46.000000,,2013-06-24 03:53:00,
2013-06-23 21:01:00,59.0,59.0,-100.00,SSW,193,10.0,20.0,100,0.03,,,0.19,46.000000,,2013-06-24 04:01:00,
2013-06-23 21:33:00,58.0,58.0,-100.00,SSW,197,3.0,20.0,100,0.03,,,0.22,12.000000,,2013-06-24 04:33:00,
2013-06-23 21:43:00,58.0,58.0,-100.00,SSW,197,3.0,20.0,100,0.03,,,0.22,12.000000,,2013-06-24 04:43:00,
2013-06-23 21:53:00,58.0,58.0,-100.00,SSW,197,3.0,20.0,100,0.03,,,0.22,12.000000,,2013-06-24 04:53:00,
2013-06-23 22:02:00,58.0,58.0,-100.00,SSW,197,3.0,20.0,100,0.03,,,0.22,12.000000,,2013-06-24 05:02:00,
2013-06-23 22:38:00,55.0,55.0,-100.00,SW,231,5.0,14.0,100,0.07,,,0.27,5.000000,,2013-06-24 05:38:00,
2013-06-23 22:46:00,55.0,55.0,-100.00,SW,231,5.0,14.0,100,0.07,,,0.27,5.000000,,2013-06-24 05:46:00,
2013-06-23 22:54:00,55.0,55.0,-100.00,SW,231,5.0,14.0,100,0.07,,,0.27,5.000000,,2013-06-24 05:54:00,
2013-06-23 23:03:00,55.0,55.0,-100.00,SW,231,5.0,14.0,100,0.07,,,0.27,5.000000,,2013-06-24 06:03:00,
2013-06-23 23:39:00,56.0,56.0,-100.00,SSW,207,6.0,15.0,100,0.03,,,0.29,4.000000,,2013-06-24 06:39:00,
2013-06-23 23:46:00,56.0,56.0,-100.00,SSW,207,6.0,15.0,100,0.03,,,0.29,4.000000,,2013-06-24 06:46:00,
2013-06-23 23:54:00,56.0,56.0,-100.00,SSW,207,6.0,15.0,100,0.03,,,0.29,4.000000,,2013-06-24 06:54:00,